Location: Pettit
(39.0209°N, 79.7181°W)
Time: 18:50:43
(UTC+00:00)

ACS3 Solar Sail - Pass Details

Date: 22 April 2026
Orbit: 894 x 947 km, 97.2° (Epoch: 12 May)

Event Time Altitude Azimuth Distance (km) Brightness Sun altitude
Rises 06:27:20 0° 11° (N) 3,552 5.7 -36.2°
Reaches altitude 10° 06:29:45 10° 11° (N) 2,614 4.8 -36.1°
Enters shadow 06:33:38 44° 11° (NNE) 1,247 2.6 -35.8°
